Regional Weather Roundup
Issued by NWS

Home | Current Version | Previous Version | Text Only | Print | Product List | Glossary Off
Versions: 1 2 3 4 5 6 7 8 9 10 11 12 13 14 15 16 17 18 19 20 21 22 23 24 25 26 27 28 29 30 31 32 33 34 35 36 37 38 39 40 41 42 43 44 45 46 47 48 49 50

174
ASUS43 KMKX 281400
RWRWI

WISCONSIN REGIONAL WEATHER ROUNDUP
NATIONAL WEATHER SERVICE MILWAUKEE/SULLIVAN WI
900 AM CDT TUE MAR 28 2017

NOTE: "FAIR" INDICATES FEW OR NO CLOUDS BELOW 12,000 FEET WITH NO
SIGNIFICANT WEATHER AND/OR OBSTRUCTIONS TO VISIBILITY.

WIZ001-002-006>008-014>016-023>028-281500-
NORTHWEST WISCONSIN

CITY           SKY/WX    TMP DP  RH WIND       PRES   REMARKS
SUPERIOR ARPT  SUNNY     32  31  96 CALM      30.16R
ASHLAND        SUNNY     37  34  89 S6        30.15R WCI  32
HAYWARD        SUNNY     38  29  70 N3        30.14R
SIREN          SUNNY     33  32  94 CALM      30.13R
CUMBERLAND     SUNNY     34  30  86 CALM      30.13R
RICE LAKE      SUNNY     33  32  96 CALM      30.14S
CHETEK         SUNNY     32  31  97 CALM      30.13S
LADYSMITH      SUNNY     37  33  87 E3        30.15R
EAU CLAIRE     NOT AVBL
MENOMONIE      SUNNY     32  32  99 CALM      30.13S
NEW RICHMOND   SUNNY     37  37 100 SE3       30.13R
OSCEOLA        SUNNY     36  36 100 CALM      30.16R
$$

WIZ003>005-009-010-017-018-281500-
NORTH CENTRAL WISCONSIN

CITY           SKY/WX    TMP DP  RH WIND       PRES   REMARKS
MANITOWISH WTR SUNNY     31  31 100 CALM      30.12S
ARBOR VITAE    SUNNY     35  34  96 CALM      30.11F
WOODRUFF       SUNNY     35  34  96 CALM      30.11F
RHINELANDER    SUNNY     35  32  88 CALM      30.13R
EAGLE RIVER    SUNNY     32  32 100 CALM      30.12S
LAND O LAKES   SUNNY     32  31  96 CALM      30.14S
PHILLIPS       SUNNY     30  29  97 CALM      30.12S
TOMAHAWK       SUNNY     31  30  96 CALM      30.14R
MEDFORD        SUNNY     33  32  96 NE5       30.12R WCI  28
MERRILL        SUNNY     30  30 100 CALM      30.14R
$$

WIZ029-030-035-036-043>047-281500-
CENTRAL WISCONSIN

CITY           SKY/WX    TMP DP  RH WIND       PRES   REMARKS
WAUSAU         SUNNY     35  33  92 N3        30.12S
MOSINEE        FOG       34  34 100 CALM      30.14  VSB 1/4
MARSHFIELD     FOG       35  34  96 E3        30.12R VSB 1
STEVENS POINT  MOSUNNY   38  35  87 CALM      30.13S
WAUPACA        SUNNY     43  39  86 N5        30.14R
WAUTOMA        PTSUNNY   43  36  76 VRB3      30.14R
WISC RAPIDS    CLOUDY    41  36  82 CALM      30.15R
CAMP DOUGLAS   NOT AVBL
$$

WIZ011>013-019>022-031-037>040-048>050-281500-
NORTHEAST WISCONSIN

CITY           SKY/WX    TMP DP  RH WIND       PRES   REMARKS
ANTIGO         SUNNY     32  32 100 CALM      30.12R
SHAWANO        SUNNY     37  35  95 CALM      30.14R
OCONTO         SUNNY     36  33  88 NE7       30.14R WCI  30
STURGEON BAY   FOG       34  33  96 E5        30.12F VSB 1/2 WCI  30
GREEN BAY      SUNNY     40  38  93 N7        30.14R
MANITOWOC      NOT AVBL
APPLETON       MOSUNNY   39  37  93 N6        30.12R WCI  35
CLINTONVILLE   SUNNY     37  36  93 N5        30.13S WCI  34
OSHKOSH        SUNNY     42  36  79 NE7       30.13R
$$

WIZ032>034-041-042-053>061-281500-
SOUTHWEST WISCONSIN

CITY           SKY/WX    TMP DP  RH WIND       PRES   REMARKS
LA CROSSE      FOG       35  35 100 CALM      30.14R VSB<1/4
SPARTA         CLOUDY    39  38  94 CALM      30.14R
VIROQUA        CLOUDY    42  39  89 CALM      30.11R
BOSCOBEL       CLOUDY    45  41  86 CALM      30.13R
PRAIRIE DU CHI CLOUDY    45  41  86 NE3       30.11R
PLATTEVILLE    CLOUDY    43  43 100 NE8       30.11R
$$

WIZ056-057-062-063-064-067-068-281500-
SOUTH CENTRAL WISCONSIN

CITY           SKY/WX    TMP DP  RH WIND       PRES   REMARKS
REEDSBURG      CLOUDY    41  40  97 E3        30.12R
BARABOO/DELLS  CLOUDY    40  38  92 NE5       30.12R
LONE ROCK      NOT AVBL
MINERAL POINT  CLOUDY    43  43 100 E7        30.10R FOG
MADISON        CLOUDY    42  36  79 NE6       30.12R
MIDDLETON      CLOUDY    42  39  91 NE9       30.12R
WATERTOWN      CLOUDY    40  38  91 N6        30.11S
MONROE         CLOUDY    39  39 100 NE10      30.10R FOG     WCI  32
JANESVILLE     CLOUDY    43  37  81 NE10      30.11R
$$

WIZ051-052-058>065-066-070>072-281500-
SOUTHEAST WISCONSIN

CITY           SKY/WX    TMP DP  RH WIND       PRES   REMARKS
MILWAUKEE      CLOUDY    42  36  79 N12       30.11S
WAUKESHA       CLOUDY    39  34  81 N3        30.12R
MILWAUKEE/TIMM CLOUDY    41  34  75 N8        30.12R
RACINE         CLOUDY    41  37  86 N9        30.12S
KENOSHA        CLOUDY    40  37  89 N9        30.11R FOG     WCI  34
FOND DU LAC    SUNNY     42  36  79 NE9       30.13R
SHEBOYGAN      SUNNY     41  34  76 NE9       30.12R
WEST BEND      PTSUNNY   41  37  87 N6        30.11R
JUNEAU         MOSUNNY   39  37  93 N6        30.12S WCI  34
$$

LSZ147-162-281500-
LAKE SUPERIOR

STATION/POSITION TIME  TEMP    WIND        PRES    WAVE
                       AIR SEA DIR/SP/G            HT/PER
                 (UTC) (F)     (DEG/KT/KT) (MB)    (FT/S)
DEVILS ISLAND    1300   41     180/  5/  6 1020.3F
PORT WING        1330   32     290/  4/  4 1021.0R
SAXON HARBOR     1340   34     190/  6/  7 1020.3S
$$

LMZ867-665-643>646-281500-
LAKE MICHIGAN

STATION/POSITION TIME  TEMP    WIND        PRES    WAVE
                       AIR SEA DIR/SP/G            HT/PER
                 (UTC) (F)     (DEG/KT/KT) (MB)    (FT/S)
CHAMBERS ISLAND  1340   31      60/  7/  9 1020.3R
NORTHPORT PIER   1340   32      70/  6/  9 1020.7R
KEWAUNEE LAKESHO 1330   38      30/  8/ 12 1019.6R
SHEBOYGAN LAKESH 1300   38     350/ 11/ 12 1020.2R
PORT WASHINGTON  1330   42      10/  4/  8 1020.7S
MILWAUKEE LAKESH 1330   40      10/  9/ 10   N/A
KENOSHA   LAKESH 1300   39      20/ 11/ 13 1019.3
$$

TC  - TEMPERATURE IN CELSIUS
VSB - VISIBILITY IN STATUTE MILES
WCI - WIND CHILL INDEX
HX  - HEAT INDEX





USA.gov is the U.S. government's official web portal to all federal, state and local government web resources and services.